Weather in Beloye Ozero

Russia / Republic of Bashkortostan     53°59′39″N   56°13′55″E
temp.,
°C
wind,
m/s
gust,
m/s
humid.,
%
clouds,
%
prec.,
mm/h
press.,
hPa
HPBL,
m
23 october, sat
sat2323:00+9sw8167595 0.0 1007636
02:00+10sw71476100 0.0 1008653
05:00+8ssw6128517 0.0 1009399
08:00+7ssw6129012 0.0 1010344
11:00+9ssw71381100 0.0 1012611
14:00+13sw8146370 0.1 10121754
17:00+12wsw712605 0.4 1013787
20:00+9ssw377197 0.0 1015106
24 october, sun
sun2423:00+9ssw51176100 0.1 1015273
02:00+8s3886100 0.0 1014174
05:00+9s4988100 0.1 1013236
08:00+8sse41095100 2.1 1011508
11:00+9ssw71492100 4.8 10091011
14:00+8wnw51090100 1.9 1010602
17:00+8w3672100 2.0 1012655
20:00+6ssw3487100 0.0 101458
25 october, mon
mon2523:00+5wsw2285100 0.1 101425
02:00+4wsw008692 0.0 101510
05:00+4se0087100 0.0 101410
08:00+3ne1188100 0.0 101410
11:00+5nw1180100 0.0 1014108
14:00+7n2369100 0.0 1013418
17:00+6nnw3472100 0.0 1013484
20:00+4n378282 0.0 1015281
26 october, tue
tue2623:00+3nnw5108583 0.0 1016440
02:00+1n7127759 0.1 1018751
05:00−1n713815 0.1 1021595
08:00−2n511815 0.0 1023488
11:000n58647 0.0 1024671
14:00+2n564935 0.0 1025881
17:00+1n245015 0.0 1025240
20:00−1sw005980 0.0 102610
27 october, wed
wed2723:00−1ssw2261100 0.0 102641
02:00−1s356278 0.0 1026140
05:00−2s37655 0.0 1025154
08:00−2s49635 0.0 1025212
11:00+2ssw610485 0.0 1025481
14:00+5ssw79445 0.0 1023874
17:00+4ssw61050100 0.0 1022442
20:00+2ssw51260100 0.0 1022319